Time,TemperatureF,DewpointF,PressureIn,WindDirection,WindDirectionDegrees,WindSpeedMPH,WindSpeedGustMPH,Humidity,HourlyPrecipIn,Conditions,Clouds,dailyrainin,SolarRadiationWatts/m^2,SoftwareType,DateUTC
2013-11-29 00:00:00,29.8,25.0,30.16,ESE,118,2.0,3.0,82,0.00,,,0.00,0,WeatherCatV1.23B16,2013-11-29 08:00:00,
2013-11-29 00:05:00,29.7,24.6,30.16,ESE,109,1.0,4.0,81,0.00,,,0.00,0,WeatherCatV1.23B16,2013-11-29 08:05:00,
2013-11-29 00:10:00,29.5,24.7,30.16,ESE,108,2.0,4.0,82,0.00,,,0.00,0,WeatherCatV1.23B16,2013-11-29 08:10:00,
2013-11-29 00:15:00,29.5,24.7,30.16,ESE,109,2.0,4.0,82,0.00,,,0.00,0,WeatherCatV1.23B16,2013-11-29 08:15:00,
2013-11-29 00:20:00,29.7,24.9,30.16,ESE,109,0.0,0.0,82,0.00,,,0.00,0,WeatherCatV1.23B16,2013-11-29 08:20:00,
2013-11-29 00:25:00,29.7,24.9,30.16,ESE,109,1.0,4.0,82,0.00,,,0.00,0,WeatherCatV1.23B16,2013-11-29 08:25:00,
2013-11-29 00:30:00,29.8,24.7,30.16,ESE,104,3.0,4.0,81,0.00,,,0.00,0,WeatherCatV1.23B16,2013-11-29 08:30:00,
2013-11-29 00:35:00,30.1,25.0,30.16,ESE,104,2.0,4.0,81,0.00,,,0.00,0,WeatherCatV1.23B16,2013-11-29 08:35:00,
2013-11-29 00:40:00,30.1,25.0,30.16,ESE,104,3.0,4.0,81,0.00,,,0.00,0,WeatherCatV1.23B16,2013-11-29 08:40:00,
2013-11-29 00:45:00,30.1,25.0,30.16,ESE,115,3.0,5.0,81,0.00,,,0.00,0,WeatherCatV1.23B16,2013-11-29 08:45:00,
2013-11-29 00:50:00,30.1,24.7,30.16,ESE,113,3.0,4.0,80,0.00,,,0.00,0,WeatherCatV1.23B16,2013-11-29 08:50:00,
2013-11-29 00:55:00,30.1,24.7,30.16,ESE,119,2.0,4.0,80,0.00,,,0.00,0,WeatherCatV1.23B16,2013-11-29 08:55:00,
2013-11-29 01:00:00,30.1,24.7,30.16,ESE,111,5.0,5.0,80,0.00,,,0.00,0,WeatherCatV1.23B16,2013-11-29 09:00:00,
2013-11-29 01:05:00,30.0,24.6,30.16,ESE,103,4.0,5.0,80,0.00,,,0.00,0,WeatherCatV1.23B16,2013-11-29 09:05:00,
2013-11-29 01:10:00,30.0,24.6,30.16,ESE,108,2.0,5.0,80,0.00,,,0.00,0,WeatherCatV1.23B16,2013-11-29 09:10:00,
2013-11-29 01:15:00,30.1,24.7,30.16,ESE,108,4.0,5.0,80,0.00,,,0.00,0,WeatherCatV1.23B16,2013-11-29 09:15:00,
2013-11-29 01:20:00,30.3,24.6,30.16,ESE,114,4.0,5.0,79,0.00,,,0.00,0,WeatherCatV1.23B16,2013-11-29 09:20:00,
2013-11-29 01:25:00,30.4,24.7,30.16,ESE,105,5.0,6.0,79,0.00,,,0.00,0,WeatherCatV1.23B16,2013-11-29 09:25:00,
2013-11-29 01:30:00,30.3,24.6,30.16,ESE,115,3.0,7.0,79,0.00,,,0.00,0,WeatherCatV1.23B16,2013-11-29 09:30:00,
2013-11-29 01:35:00,30.0,24.3,30.16,ESE,105,4.0,7.0,79,0.00,,,0.00,0,WeatherCatV1.23B16,2013-11-29 09:35:00,
2013-11-29 01:40:00,29.8,24.4,30.16,ESE,106,4.0,5.0,80,0.00,,,0.00,0,WeatherCatV1.23B16,2013-11-29 09:40:00,
2013-11-29 01:45:00,29.7,24.6,30.17,ESE,110,2.0,4.0,81,0.00,,,0.00,0,WeatherCatV1.23B16,2013-11-29 09:45:00,
2013-11-29 01:50:00,29.5,24.7,30.17,ESE,121,5.0,5.0,82,0.00,,,0.00,0,WeatherCatV1.23B16,2013-11-29 09:50:00,
2013-11-29 01:55:00,29.5,24.7,30.17,ESE,114,0.0,2.0,82,0.00,,,0.00,0,WeatherCatV1.23B16,2013-11-29 09:55:00,
2013-11-29 02:00:00,29.4,24.6,30.18,ESE,110,2.0,3.0,82,0.00,,,0.00,0,WeatherCatV1.23B16,2013-11-29 10:00:00,
2013-11-29 02:05:00,29.4,24.3,30.18,East,98,0.0,0.0,81,0.00,,,0.00,0,WeatherCatV1.23B16,2013-11-29 10:05:00,
2013-11-29 02:10:00,29.4,24.6,30.18,East,98,1.0,2.0,82,0.00,,,0.00,0,WeatherCatV1.23B16,2013-11-29 10:10:00,
2013-11-29 02:15:00,29.4,24.6,30.20,East,99,3.0,4.0,82,0.00,,,0.00,0,WeatherCatV1.23B16,2013-11-29 10:15:00,
2013-11-29 02:20:00,29.5,24.7,30.20,ESE,110,4.0,4.0,82,0.00,,,0.00,0,WeatherCatV1.23B16,2013-11-29 10:20:00,
2013-11-29 02:25:00,29.7,24.9,30.20,ESE,110,3.0,5.0,82,0.00,,,0.00,0,WeatherCatV1.23B16,2013-11-29 10:25:00,
2013-11-29 02:30:00,29.8,24.7,30.20,SE,146,6.0,7.0,81,0.00,,,0.00,0,WeatherCatV1.23B16,2013-11-29 10:30:00,
2013-11-29 02:35:00,29.8,24.7,30.20,SE,129,4.0,5.0,81,0.00,,,0.00,0,WeatherCatV1.23B16,2013-11-29 10:35:00,
2013-11-29 02:40:00,29.8,24.7,30.20,SE,130,4.0,6.0,81,0.00,,,0.00,0,WeatherCatV1.23B16,2013-11-29 10:40:00,
2013-11-29 02:45:00,29.8,24.7,30.20,ESE,111,1.0,5.0,81,0.00,,,0.00,0,WeatherCatV1.23B16,2013-11-29 10:45:00,
2013-11-29 02:50:00,29.8,25.0,30.20,SE,124,4.0,7.0,82,0.00,,,0.00,0,WeatherCatV1.23B16,2013-11-29 10:50:00,
2013-11-29 02:55:00,30.1,25.0,30.20,SE,125,4.0,5.0,81,0.00,,,0.00,0,WeatherCatV1.23B16,2013-11-29 10:55:00,
2013-11-29 03:00:00,30.3,25.2,30.20,SE,129,1.0,8.0,81,0.00,,,0.00,0,WeatherCatV1.23B16,2013-11-29 11:00:00,
2013-11-29 03:05:00,30.1,24.7,30.20,ESE,118,3.0,5.0,80,0.00,,,0.00,0,WeatherCatV1.23B16,2013-11-29 11:05:00,
2013-11-29 03:10:00,30.1,25.0,30.20,SSE,150,2.0,10.0,81,0.00,,,0.00,0,WeatherCatV1.23B16,2013-11-29 11:10:00,
2013-11-29 03:15:00,30.1,24.7,30.21,ESE,111,3.0,4.0,80,0.00,,,0.00,0,WeatherCatV1.23B16,2013-11-29 11:15:00,
2013-11-29 03:20:00,30.0,24.9,30.21,ESE,120,4.0,5.0,81,0.00,,,0.00,0,WeatherCatV1.23B16,2013-11-29 11:20:00,
2013-11-29 03:25:00,30.0,24.9,30.21,SE,133,0.0,6.0,81,0.00,,,0.00,0,WeatherCatV1.23B16,2013-11-29 11:25:00,
2013-11-29 03:30:00,30.0,24.6,30.21,ESE,114,2.0,5.0,80,0.00,,,0.00,0,WeatherCatV1.23B16,2013-11-29 11:30:00,
2013-11-29 03:36:00,30.0,24.6,30.21,ESE,120,5.0,6.0,80,0.00,,,0.00,0,WeatherCatV1.23B16,2013-11-29 11:36:00,
2013-11-29 03:41:00,30.0,24.9,30.21,SE,125,3.0,5.0,81,0.00,,,0.00,0,WeatherCatV1.23B16,2013-11-29 11:41:00,
2013-11-29 03:46:00,30.1,24.7,30.21,SE,142,3.0,6.0,80,0.00,,,0.00,0,WeatherCatV1.23B16,2013-11-29 11:46:00,
2013-11-29 03:51:00,30.1,24.7,30.21,SE,141,3.0,6.0,80,0.00,,,0.00,0,WeatherCatV1.23B16,2013-11-29 11:51:00,
2013-11-29 03:56:00,30.0,24.6,30.21,ESE,116,5.0,6.0,80,0.00,,,0.00,0,WeatherCatV1.23B16,2013-11-29 11:56:00,
2013-11-29 04:01:00,30.0,24.6,30.21,ESE,105,4.0,7.0,80,0.00,,,0.00,0,WeatherCatV1.23B16,2013-11-29 12:01:00,
2013-11-29 04:06:00,29.8,24.7,30.21,SE,128,4.0,6.0,81,0.00,,,0.00,0,WeatherCatV1.23B16,2013-11-29 12:06:00,
2013-11-29 04:11:00,29.8,24.7,30.21,East,101,4.0,5.0,81,0.00,,,0.00,0,WeatherCatV1.23B16,2013-11-29 12:11:00,
2013-11-29 04:16:00,29.7,24.6,30.23,ESE,108,3.0,5.0,81,0.00,,,0.00,0,WeatherCatV1.23B16,2013-11-29 12:16:00,
2013-11-29 04:21:00,29.7,24.6,30.23,ESE,110,4.0,6.0,81,0.00,,,0.00,0,WeatherCatV1.23B16,2013-11-29 12:21:00,
2013-11-29 04:26:00,29.7,24.6,30.23,ESE,106,3.0,6.0,81,0.00,,,0.00,0,WeatherCatV1.23B16,2013-11-29 12:26:00,
2013-11-29 04:31:00,29.8,24.7,30.23,SE,131,6.0,6.0,81,0.00,,,0.00,0,WeatherCatV1.23B16,2013-11-29 12:31:00,
2013-11-29 04:36:00,29.8,24.7,30.23,ESE,108,4.0,7.0,81,0.00,,,0.00,0,WeatherCatV1.23B16,2013-11-29 12:36:00,
2013-11-29 04:41:00,29.7,24.6,30.23,SE,126,3.0,6.0,81,0.00,,,0.00,0,WeatherCatV1.23B16,2013-11-29 12:41:00,
2013-11-29 04:46:00,29.7,24.6,30.24,SE,135,3.0,5.0,81,0.00,,,0.00,0,WeatherCatV1.23B16,2013-11-29 12:46:00,
2013-11-29 04:51:00,29.7,24.6,30.24,ESE,121,3.0,4.0,81,0.00,,,0.00,0,WeatherCatV1.23B16,2013-11-29 12:51:00,
2013-11-29 04:56:00,29.7,24.6,30.24,SE,129,3.0,5.0,81,0.00,,,0.00,0,WeatherCatV1.23B16,2013-11-29 12:56:00,
2013-11-29 05:01:00,29.5,24.4,30.24,ESE,110,5.0,6.0,81,0.00,,,0.00,0,WeatherCatV1.23B16,2013-11-29 13:01:00,
2013-11-29 05:06:00,29.5,24.7,30.24,ESE,106,4.0,5.0,82,0.00,,,0.00,0,WeatherCatV1.23B16,2013-11-29 13:06:00,
2013-11-29 05:11:00,29.4,24.6,30.24,ESE,122,3.0,4.0,82,0.00,,,0.00,0,WeatherCatV1.23B16,2013-11-29 13:11:00,
2013-11-29 05:16:00,29.4,24.6,30.26,SE,124,5.0,6.0,82,0.00,,,0.00,0,WeatherCatV1.23B16,2013-11-29 13:16:00,
2013-11-29 05:21:00,29.4,24.6,30.26,SE,125,4.0,7.0,82,0.00,,,0.00,0,WeatherCatV1.23B16,2013-11-29 13:21:00,
2013-11-29 05:26:00,29.4,24.6,30.26,SE,141,5.0,7.0,82,0.00,,,0.00,0,WeatherCatV1.23B16,2013-11-29 13:26:00,
2013-11-29 05:31:00,29.4,24.6,30.26,ESE,122,5.0,7.0,82,0.00,,,0.00,0,WeatherCatV1.23B16,2013-11-29 13:31:00,
2013-11-29 05:36:00,29.4,24.6,30.26,SE,124,5.0,7.0,82,0.00,,,0.00,0,WeatherCatV1.23B16,2013-11-29 13:36:00,
2013-11-29 05:41:00,29.4,24.6,30.26,ESE,113,2.0,7.0,82,0.00,,,0.00,0,WeatherCatV1.23B16,2013-11-29 13:41:00,
2013-11-29 05:46:00,29.3,24.5,30.26,ESE,108,3.0,4.0,82,0.00,,,0.00,0,WeatherCatV1.23B16,2013-11-29 13:46:00,
2013-11-29 05:51:00,29.1,24.3,30.26,ESE,112,3.0,5.0,82,0.00,,,0.00,0,WeatherCatV1.23B16,2013-11-29 13:51:00,
2013-11-29 05:56:00,29.0,24.2,30.26,ESE,110,2.0,4.0,82,0.00,,,0.00,0,WeatherCatV1.23B16,2013-11-29 13:56:00,
2013-11-29 06:01:00,29.0,24.2,30.27,ESE,110,2.0,4.0,82,0.00,,,0.00,0,WeatherCatV1.23B16,2013-11-29 14:01:00,
2013-11-29 06:06:00,28.8,24.3,30.27,ESE,108,1.0,4.0,83,0.00,,,0.00,0,WeatherCatV1.23B16,2013-11-29 14:06:00,
2013-11-29 06:11:00,28.5,24.0,30.27,ESE,108,3.0,3.0,83,0.00,,,0.00,0,WeatherCatV1.23B16,2013-11-29 14:11:00,
2013-11-29 06:16:00,28.2,23.7,30.28,ESE,108,0.0,0.0,83,0.00,,,0.00,0,WeatherCatV1.23B16,2013-11-29 14:16:00,
2013-11-29 06:21:00,28.1,23.9,30.28,ESE,108,1.0,2.0,84,0.00,,,0.00,0,WeatherCatV1.23B16,2013-11-29 14:21:00,
2013-11-29 06:26:00,28.1,23.9,30.28,ESE,110,0.0,3.0,84,0.00,,,0.00,0,WeatherCatV1.23B16,2013-11-29 14:26:00,
2013-11-29 06:31:00,28.2,24.3,30.28,ESE,106,0.0,2.0,85,0.00,,,0.00,0,WeatherCatV1.23B16,2013-11-29 14:31:00,
2013-11-29 06:36:00,28.4,24.2,30.28,ESE,108,2.0,3.0,84,0.00,,,0.00,0,WeatherCatV1.23B16,2013-11-29 14:36:00,
2013-11-29 06:41:00,28.5,24.3,30.28,ESE,106,0.0,4.0,84,0.00,,,0.00,0,WeatherCatV1.23B16,2013-11-29 14:41:00,
2013-11-29 06:46:00,28.5,24.3,30.29,ESE,109,2.0,3.0,84,0.00,,,0.00,0,WeatherCatV1.23B16,2013-11-29 14:46:00,
2013-11-29 06:51:00,28.5,24.3,30.29,ESE,121,3.0,6.0,84,0.00,,,0.00,0,WeatherCatV1.23B16,2013-11-29 14:51:00,
2013-11-29 06:56:00,28.7,24.2,30.29,ESE,107,1.0,4.0,83,0.00,,,0.00,0,WeatherCatV1.23B16,2013-11-29 14:56:00,
2013-11-29 07:01:00,28.5,24.0,30.29,ESE,112,4.0,5.0,83,0.00,,,0.00,5,WeatherCatV1.23B16,2013-11-29 15:01:00,
2013-11-29 07:06:00,28.7,24.2,30.29,ESE,117,3.0,6.0,83,0.00,,,0.00,7,WeatherCatV1.23B16,2013-11-29 15:06:00,
2013-11-29 07:11:00,28.8,24.3,30.29,ESE,116,5.0,6.0,83,0.00,,,0.00,9,WeatherCatV1.23B16,2013-11-29 15:11:00,
2013-11-29 07:17:00,29.0,24.5,30.29,ESE,104,6.0,8.0,83,0.00,,,0.00,11,WeatherCatV1.23B16,2013-11-29 15:17:00,
2013-11-29 07:22:00,29.1,24.6,30.29,ESE,103,4.0,10.0,83,0.00,,,0.00,14,WeatherCatV1.23B16,2013-11-29 15:22:00,
2013-11-29 07:27:00,29.3,24.5,30.29,SE,131,4.0,10.0,82,0.00,,,0.00,14,WeatherCatV1.23B16,2013-11-29 15:27:00,
2013-11-29 07:32:00,29.4,24.6,30.29,East,95,4.0,7.0,82,0.00,,,0.00,16,WeatherCatV1.23B16,2013-11-29 15:32:00,
2013-11-29 07:37:00,29.4,24.6,30.29,ESE,110,3.0,9.0,82,0.00,,,0.00,21,WeatherCatV1.23B16,2013-11-29 15:37:00,
2013-11-29 07:42:00,29.4,24.6,30.29,ESE,116,9.0,9.0,82,0.00,,,0.00,23,WeatherCatV1.23B16,2013-11-29 15:42:00,
2013-11-29 07:47:00,29.5,24.7,30.29,ESE,106,5.0,9.0,82,0.00,,,0.00,72,WeatherCatV1.23B16,2013-11-29 15:47:00,
2013-11-29 07:52:00,30.0,25.2,30.29,ESE,120,7.0,7.0,82,0.00,,,0.00,84,WeatherCatV1.23B16,2013-11-29 15:52:00,
2013-11-29 07:57:00,30.3,25.5,30.29,ESE,106,3.0,7.0,82,0.00,,,0.00,97,WeatherCatV1.23B16,2013-11-29 15:57:00,
2013-11-29 08:02:00,30.4,25.3,30.28,ESE,108,3.0,7.0,81,0.00,,,0.00,30,WeatherCatV1.23B16,2013-11-29 16:02:00,
2013-11-29 08:07:00,30.7,25.6,30.28,ESE,110,6.0,6.0,81,0.00,,,0.00,91,WeatherCatV1.23B16,2013-11-29 16:07:00,
2013-11-29 08:12:00,30.9,25.5,30.28,ESE,109,3.0,10.0,80,0.00,,,0.00,84,WeatherCatV1.23B16,2013-11-29 16:12:00,
2013-11-29 08:17:00,31.2,25.8,30.29,SE,126,2.0,7.0,80,0.00,,,0.00,30,WeatherCatV1.23B16,2013-11-29 16:17:00,
2013-11-29 08:22:00,31.3,25.9,30.29,East,95,4.0,6.0,80,0.00,,,0.00,23,WeatherCatV1.23B16,2013-11-29 16:22:00,
2013-11-29 08:27:00,31.5,26.0,30.29,ESE,114,3.0,7.0,80,0.00,,,0.00,37,WeatherCatV1.23B16,2013-11-29 16:27:00,
2013-11-29 08:32:00,31.6,25.9,30.29,SE,124,3.0,10.0,79,0.00,,,0.00,25,WeatherCatV1.23B16,2013-11-29 16:32:00,
2013-11-29 08:37:00,31.8,26.0,30.29,ESE,116,5.0,7.0,79,0.00,,,0.00,193,WeatherCatV1.23B16,2013-11-29 16:37:00,
2013-11-29 08:42:00,32.1,26.0,30.29,ESE,110,4.0,6.0,78,0.00,,,0.00,207,WeatherCatV1.23B16,2013-11-29 16:42:00,
2013-11-29 08:47:00,32.5,26.1,30.29,ESE,112,6.0,10.0,77,0.00,,,0.00,220,WeatherCatV1.23B16,2013-11-29 16:47:00,
2013-11-29 08:52:00,32.7,26.0,30.29,ESE,104,2.0,13.0,76,0.00,,,0.00,232,WeatherCatV1.23B16,2013-11-29 16:52:00,
2013-11-29 08:57:00,32.9,26.2,30.29,ESE,116,5.0,10.0,76,0.00,,,0.00,244,WeatherCatV1.23B16,2013-11-29 16:57:00,
2013-11-29 09:02:00,33.2,26.1,30.27,ESE,118,4.0,7.0,75,0.00,,,0.00,258,WeatherCatV1.23B16,2013-11-29 17:02:00,
2013-11-29 09:07:00,33.5,26.4,30.27,ESE,106,7.0,12.0,75,0.00,,,0.00,271,WeatherCatV1.23B16,2013-11-29 17:07:00,
2013-11-29 09:12:00,33.8,26.7,30.27,East,82,4.0,10.0,75,0.00,,,0.00,281,WeatherCatV1.23B16,2013-11-29 17:12:00,
2013-11-29 09:17:00,34.1,26.7,30.28,ESE,118,5.0,7.0,74,0.00,,,0.00,292,WeatherCatV1.23B16,2013-11-29 17:17:00,
2013-11-29 09:22:00,34.4,26.7,30.28,ESE,118,7.0,11.0,73,0.00,,,0.00,304,WeatherCatV1.23B16,2013-11-29 17:22:00,
2013-11-29 09:27:00,34.4,26.3,30.28,SE,130,5.0,11.0,72,0.00,,,0.00,315,WeatherCatV1.23B16,2013-11-29 17:27:00,
2013-11-29 09:32:00,34.6,26.5,30.28,ESE,108,1.0,9.0,72,0.00,,,0.00,327,WeatherCatV1.23B16,2013-11-29 17:32:00,
2013-11-29 09:37:00,34.7,26.3,30.28,East,93,2.0,13.0,71,0.00,,,0.00,338,WeatherCatV1.23B16,2013-11-29 17:37:00,
2013-11-29 09:42:00,34.9,26.1,30.28,East,93,3.0,9.0,70,0.00,,,0.00,348,WeatherCatV1.23B16,2013-11-29 17:42:00,
2013-11-29 09:47:00,35.0,26.2,30.27,East,98,2.0,13.0,70,0.00,,,0.00,359,WeatherCatV1.23B16,2013-11-29 17:47:00,
2013-11-29 09:52:00,35.3,26.5,30.27,ESE,108,2.0,5.0,70,0.00,,,0.00,367,WeatherCatV1.23B16,2013-11-29 17:52:00,
2013-11-29 09:57:00,35.8,26.6,30.27,East,89,4.0,10.0,69,0.00,,,0.00,378,WeatherCatV1.23B16,2013-11-29 17:57:00,
2013-11-29 10:02:00,36.2,26.3,30.28,ESE,120,4.0,9.0,67,0.00,,,0.00,388,WeatherCatV1.23B16,2013-11-29 18:02:00,
2013-11-29 10:07:00,36.5,26.6,30.28,ESE,114,0.0,5.0,67,0.00,,,0.00,397,WeatherCatV1.23B16,2013-11-29 18:07:00,
2013-11-29 10:12:00,37.0,26.7,30.28,SE,132,3.0,6.0,66,0.00,,,0.00,408,WeatherCatV1.23B16,2013-11-29 18:12:00,
2013-11-29 10:17:00,37.5,26.8,30.26,ESE,116,2.0,6.0,65,0.00,,,0.00,417,WeatherCatV1.23B16,2013-11-29 18:17:00,
2013-11-29 10:22:00,37.8,26.7,30.26,East,101,3.0,11.0,64,0.00,,,0.00,424,WeatherCatV1.23B16,2013-11-29 18:22:00,
2013-11-29 10:27:00,37.9,26.5,30.26,ESE,110,5.0,11.0,63,0.00,,,0.00,431,WeatherCatV1.23B16,2013-11-29 18:27:00,
2013-11-29 10:32:00,38.0,26.5,30.26,ESE,119,7.0,10.0,63,0.00,,,0.00,438,WeatherCatV1.23B16,2013-11-29 18:32:00,
2013-11-29 10:37:00,38.2,26.7,30.26,ESE,110,4.0,6.0,63,0.00,,,0.00,445,WeatherCatV1.23B16,2013-11-29 18:37:00,
2013-11-29 10:42:00,38.6,26.7,30.26,ESE,114,2.0,5.0,62,0.00,,,0.00,450,WeatherCatV1.23B16,2013-11-29 18:42:00,
2013-11-29 10:47:00,39.1,26.4,30.25,ESE,114,5.0,9.0,60,0.00,,,0.00,457,WeatherCatV1.23B16,2013-11-29 18:47:00,
2013-11-29 10:52:00,39.2,26.5,30.25,East,101,4.0,8.0,60,0.00,,,0.00,464,WeatherCatV1.23B16,2013-11-29 18:52:00,
2013-11-29 10:57:00,39.1,26.4,30.25,ESE,111,5.0,7.0,60,0.00,,,0.00,469,WeatherCatV1.23B16,2013-11-29 18:57:00,
2013-11-29 11:02:00,38.9,26.6,30.25,ESE,114,2.0,8.0,61,0.00,,,0.00,475,WeatherCatV1.23B16,2013-11-29 19:02:00,
2013-11-29 11:07:00,39.3,26.6,30.25,SE,124,5.0,7.0,60,0.00,,,0.00,478,WeatherCatV1.23B16,2013-11-29 19:07:00,
2013-11-29 11:12:00,39.6,26.5,30.25,SSE,149,6.0,10.0,59,0.00,,,0.00,482,WeatherCatV1.23B16,2013-11-29 19:12:00,
2013-11-29 11:17:00,39.3,26.6,30.25,ESE,109,4.0,7.0,60,0.00,,,0.00,485,WeatherCatV1.23B16,2013-11-29 19:17:00,
2013-11-29 11:22:00,39.5,26.8,30.25,SE,133,5.0,11.0,60,0.00,,,0.00,489,WeatherCatV1.23B16,2013-11-29 19:22:00,
2013-11-29 11:27:00,39.8,26.7,30.25,SE,145,6.0,8.0,59,0.00,,,0.00,492,WeatherCatV1.23B16,2013-11-29 19:27:00,
2013-11-29 11:32:00,39.9,26.3,30.25,ESE,107,6.0,8.0,58,0.00,,,0.00,494,WeatherCatV1.23B16,2013-11-29 19:32:00,
2013-11-29 11:37:00,39.8,26.2,30.25,SSE,153,7.0,7.0,58,0.00,,,0.00,497,WeatherCatV1.23B16,2013-11-29 19:37:00,
2013-11-29 11:42:00,39.8,26.2,30.25,ESE,111,5.0,7.0,58,0.00,,,0.00,499,WeatherCatV1.23B16,2013-11-29 19:42:00,
2013-11-29 11:47:00,40.2,26.2,30.25,SE,135,6.0,12.0,57,0.00,,,0.00,501,WeatherCatV1.23B16,2013-11-29 19:47:00,
2013-11-29 11:52:00,40.2,26.6,30.25,ESE,104,6.0,7.0,58,0.00,,,0.00,503,WeatherCatV1.23B16,2013-11-29 19:52:00,
2013-11-29 11:57:00,39.6,26.1,30.25,ESE,110,3.0,9.0,58,0.00,,,0.00,503,WeatherCatV1.23B16,2013-11-29 19:57:00,
2013-11-29 12:02:00,39.5,26.4,30.25,ESE,108,2.0,6.0,59,0.00,,,0.00,503,WeatherCatV1.23B16,2013-11-29 20:02:00,
2013-11-29 12:07:00,39.6,25.6,30.25,SE,132,3.0,8.0,57,0.00,,,0.00,503,WeatherCatV1.23B16,2013-11-29 20:07:00,
2013-11-29 12:12:00,39.6,25.2,30.25,ESE,122,4.0,11.0,56,0.00,,,0.00,501,WeatherCatV1.23B16,2013-11-29 20:12:00,
2013-11-29 12:17:00,40.1,26.1,30.24,SE,127,1.0,9.0,57,0.00,,,0.00,501,WeatherCatV1.23B16,2013-11-29 20:17:00,
2013-11-29 12:22:00,40.5,25.6,30.24,SSE,163,9.0,9.0,55,0.00,,,0.00,499,WeatherCatV1.23B16,2013-11-29 20:22:00,
2013-11-29 12:27:00,40.6,25.3,30.24,SE,139,1.0,6.0,54,0.00,,,0.00,497,WeatherCatV1.23B16,2013-11-29 20:27:00,
2013-11-29 12:32:00,40.6,24.8,30.23,SSE,153,12.0,12.0,53,0.00,,,0.00,494,WeatherCatV1.23B16,2013-11-29 20:32:00,
2013-11-29 12:37:00,40.5,25.2,30.23,ESE,110,5.0,7.0,54,0.00,,,0.00,492,WeatherCatV1.23B16,2013-11-29 20:37:00,
2013-11-29 12:42:00,40.2,24.5,30.23,ESE,106,12.0,12.0,53,0.00,,,0.00,489,WeatherCatV1.23B16,2013-11-29 20:42:00,
2013-11-29 12:47:00,39.8,24.1,30.23,ESE,103,5.0,11.0,53,0.00,,,0.00,485,WeatherCatV1.23B16,2013-11-29 20:47:00,
2013-11-29 12:52:00,39.8,24.5,30.23,SE,128,4.0,12.0,54,0.00,,,0.00,482,WeatherCatV1.23B16,2013-11-29 20:52:00,
2013-11-29 12:57:00,39.9,24.2,30.23,ESE,118,6.0,10.0,53,0.00,,,0.00,478,WeatherCatV1.23B16,2013-11-29 20:57:00,
2013-11-29 13:02:00,40.2,24.5,30.23,SSE,147,4.0,10.0,53,0.00,,,0.00,473,WeatherCatV1.23B16,2013-11-29 21:02:00,
2013-11-29 13:07:00,40.3,24.5,30.23,ESE,122,5.0,11.0,53,0.00,,,0.00,468,WeatherCatV1.23B16,2013-11-29 21:07:00,
2013-11-29 13:12:00,40.1,24.4,30.23,East,101,5.0,10.0,53,0.00,,,0.00,462,WeatherCatV1.23B16,2013-11-29 21:12:00,
2013-11-29 13:17:00,39.9,24.6,30.24,East,96,5.0,12.0,54,0.00,,,0.00,457,WeatherCatV1.23B16,2013-11-29 21:17:00,
2013-11-29 13:22:00,39.8,23.6,30.24,ESE,114,7.0,12.0,52,0.00,,,0.00,452,WeatherCatV1.23B16,2013-11-29 21:22:00,
2013-11-29 13:27:00,39.8,24.5,30.24,ESE,109,6.0,9.0,54,0.00,,,0.00,445,WeatherCatV1.23B16,2013-11-29 21:27:00,
2013-11-29 13:32:00,39.9,24.2,30.24,East,101,4.0,9.0,53,0.00,,,0.00,438,WeatherCatV1.23B16,2013-11-29 21:32:00,
2013-11-29 13:38:00,40.1,23.9,30.24,ESE,105,0.0,13.0,52,0.00,,,0.00,429,WeatherCatV1.23B16,2013-11-29 21:38:00,
2013-11-29 13:43:00,40.1,23.9,30.24,SSE,151,6.0,12.0,52,0.00,,,0.00,422,WeatherCatV1.23B16,2013-11-29 21:43:00,
2013-11-29 13:48:00,40.2,23.1,30.24,SSE,160,5.0,7.0,50,0.00,,,0.00,413,WeatherCatV1.23B16,2013-11-29 21:48:00,
2013-11-29 13:53:00,40.2,22.6,30.24,ESE,112,5.0,11.0,49,0.00,,,0.00,404,WeatherCatV1.23B16,2013-11-29 21:53:00,
2013-11-29 13:58:00,39.9,22.8,30.24,ESE,119,4.0,11.0,50,0.00,,,0.00,396,WeatherCatV1.23B16,2013-11-29 21:58:00,
2013-11-29 14:03:00,39.8,22.7,30.23,ESE,106,3.0,4.0,50,0.00,,,0.00,387,WeatherCatV1.23B16,2013-11-29 22:03:00,
2013-11-29 14:08:00,39.9,22.3,30.23,ESE,118,1.0,6.0,49,0.00,,,0.00,378,WeatherCatV1.23B16,2013-11-29 22:08:00,
2013-11-29 14:13:00,40.2,23.1,30.23,ESE,110,3.0,9.0,50,0.00,,,0.00,367,WeatherCatV1.23B16,2013-11-29 22:13:00,
2013-11-29 14:18:00,40.1,22.5,30.22,East,86,6.0,11.0,49,0.00,,,0.00,357,WeatherCatV1.23B16,2013-11-29 22:18:00,
2013-11-29 14:23:00,39.9,23.3,30.22,ESE,118,7.0,10.0,51,0.00,,,0.00,25,WeatherCatV1.23B16,2013-11-29 22:23:00,
2013-11-29 14:28:00,39.6,22.5,30.22,SSE,151,6.0,8.0,50,0.00,,,0.00,21,WeatherCatV1.23B16,2013-11-29 22:28:00,
2013-11-29 14:33:00,39.5,22.4,30.22,ESE,117,5.0,8.0,50,0.00,,,0.00,21,WeatherCatV1.23B16,2013-11-29 22:33:00,
2013-11-29 14:38:00,39.2,22.1,30.22,East,101,4.0,8.0,50,0.00,,,0.00,21,WeatherCatV1.23B16,2013-11-29 22:38:00,
2013-11-29 14:43:00,38.6,22.5,30.22,ESE,113,2.0,5.0,52,0.00,,,0.00,23,WeatherCatV1.23B16,2013-11-29 22:43:00,
2013-11-29 14:48:00,38.3,22.7,30.24,ESE,119,4.0,6.0,53,0.00,,,0.00,21,WeatherCatV1.23B16,2013-11-29 22:48:00,
2013-11-29 14:53:00,38.2,21.7,30.24,ESE,113,4.0,5.0,51,0.00,,,0.00,21,WeatherCatV1.23B16,2013-11-29 22:53:00,
2013-11-29 14:58:00,38.2,22.1,30.24,ESE,112,4.0,10.0,52,0.00,,,0.00,21,WeatherCatV1.23B16,2013-11-29 22:58:00,
2013-11-29 15:03:00,38.2,21.7,30.24,SE,136,6.0,8.0,51,0.00,,,0.00,19,WeatherCatV1.23B16,2013-11-29 23:03:00,
2013-11-29 15:08:00,38.2,22.1,30.24,SE,130,6.0,7.0,52,0.00,,,0.00,26,WeatherCatV1.23B16,2013-11-29 23:08:00,
2013-11-29 15:13:00,38.0,22.0,30.24,SE,133,5.0,9.0,52,0.00,,,0.00,19,WeatherCatV1.23B16,2013-11-29 23:13:00,
2013-11-29 15:18:00,37.9,21.9,30.24,ESE,110,4.0,5.0,52,0.00,,,0.00,21,WeatherCatV1.23B16,2013-11-29 23:18:00,
2013-11-29 15:23:00,37.8,21.8,30.24,ESE,110,5.0,7.0,52,0.00,,,0.00,23,WeatherCatV1.23B16,2013-11-29 23:23:00,
2013-11-29 15:28:00,37.6,21.6,30.24,SE,133,5.0,7.0,52,0.00,,,0.00,18,WeatherCatV1.23B16,2013-11-29 23:28:00,
2013-11-29 15:33:00,37.6,21.6,30.24,ESE,105,4.0,7.0,52,0.00,,,0.00,18,WeatherCatV1.23B16,2013-11-29 23:33:00,
2013-11-29 15:38:00,37.5,21.5,30.24,SE,129,5.0,6.0,52,0.00,,,0.00,33,WeatherCatV1.23B16,2013-11-29 23:38:00,
2013-11-29 15:43:00,37.5,21.5,30.24,SE,135,5.0,6.0,52,0.00,,,0.00,18,WeatherCatV1.23B16,2013-11-29 23:43:00,
2013-11-29 15:48:00,37.3,21.8,30.24,SE,128,4.0,6.0,53,0.00,,,0.00,16,WeatherCatV1.23B16,2013-11-29 23:48:00,
2013-11-29 15:53:00,37.2,22.1,30.24,SE,128,4.0,5.0,54,0.00,,,0.00,16,WeatherCatV1.23B16,2013-11-29 23:53:00,
2013-11-29 15:58:00,37.0,21.9,30.24,SE,133,6.0,7.0,54,0.00,,,0.00,14,WeatherCatV1.23B16,2013-11-29 23:58:00,
2013-11-29 16:03:00,36.9,22.7,30.25,ESE,120,4.0,7.0,56,0.00,,,0.00,14,WeatherCatV1.23B16,2013-11-30 00:03:00,
2013-11-29 16:08:00,36.6,22.4,30.25,ESE,108,3.0,7.0,56,0.00,,,0.00,12,WeatherCatV1.23B16,2013-11-30 00:08:00,
2013-11-29 16:13:00,36.5,22.3,30.25,ESE,103,5.0,9.0,56,0.00,,,0.00,12,WeatherCatV1.23B16,2013-11-30 00:13:00,
2013-11-29 16:18:00,36.2,22.5,30.26,ESE,112,2.0,5.0,57,0.00,,,0.00,11,WeatherCatV1.23B16,2013-11-30 00:18:00,
2013-11-29 16:23:00,36.0,23.1,30.26,SE,130,5.0,6.0,59,0.00,,,0.00,14,WeatherCatV1.23B16,2013-11-30 00:23:00,
2013-11-29 16:28:00,35.8,22.9,30.26,ESE,112,3.0,5.0,59,0.00,,,0.00,7,WeatherCatV1.23B16,2013-11-30 00:28:00,
2013-11-29 16:33:00,35.5,23.4,30.26,ESE,111,5.0,5.0,61,0.00,,,0.00,5,WeatherCatV1.23B16,2013-11-30 00:33:00,
2013-11-29 16:38:00,35.2,23.1,30.26,ESE,111,5.0,9.0,61,0.00,,,0.00,5,WeatherCatV1.23B16,2013-11-30 00:38:00,
2013-11-29 16:43:00,35.2,23.5,30.26,SE,128,3.0,6.0,62,0.00,,,0.00,0,WeatherCatV1.23B16,2013-11-30 00:43:00,
2013-11-29 16:48:00,35.0,23.3,30.28,ESE,113,4.0,5.0,62,0.00,,,0.00,0,WeatherCatV1.23B16,2013-11-30 00:48:00,
2013-11-29 16:53:00,35.0,23.7,30.28,SE,124,3.0,4.0,63,0.00,,,0.00,0,WeatherCatV1.23B16,2013-11-30 00:53:00,
2013-11-29 16:58:00,34.9,24.0,30.28,ESE,113,1.0,5.0,64,0.00,,,0.00,0,WeatherCatV1.23B16,2013-11-30 00:58:00,
2013-11-29 17:03:00,34.6,23.7,30.28,ESE,112,0.0,5.0,64,0.00,,,0.00,0,WeatherCatV1.23B16,2013-11-30 01:03:00,
2013-11-29 17:08:00,34.4,23.9,30.28,ESE,110,0.0,3.0,65,0.00,,,0.00,0,WeatherCatV1.23B16,2013-11-30 01:08:00,
2013-11-29 17:13:00,34.4,23.9,30.28,ESE,110,1.0,3.0,65,0.00,,,0.00,0,WeatherCatV1.23B16,2013-11-30 01:13:00,
2013-11-29 17:18:00,34.4,23.9,30.30,ESE,103,1.0,4.0,65,0.00,,,0.00,0,WeatherCatV1.23B16,2013-11-30 01:18:00,
2013-11-29 17:23:00,34.3,23.8,30.30,ESE,106,0.0,5.0,65,0.00,,,0.00,0,WeatherCatV1.23B16,2013-11-30 01:23:00,
2013-11-29 17:28:00,34.3,24.1,30.30,ESE,111,3.0,4.0,66,0.00,,,0.00,0,WeatherCatV1.23B16,2013-11-30 01:28:00,
2013-11-29 17:33:00,34.4,23.9,30.31,ESE,111,3.0,4.0,65,0.00,,,0.00,0,WeatherCatV1.23B16,2013-11-30 01:33:00,
2013-11-29 17:38:00,34.4,23.9,30.31,ESE,114,3.0,5.0,65,0.00,,,0.00,0,WeatherCatV1.23B16,2013-11-30 01:38:00,
2013-11-29 17:43:00,34.6,24.1,30.31,ESE,116,5.0,7.0,65,0.00,,,0.00,0,WeatherCatV1.23B16,2013-11-30 01:43:00,
2013-11-29 17:48:00,34.6,24.1,30.29,SE,134,6.0,6.0,65,0.00,,,0.00,0,WeatherCatV1.23B16,2013-11-30 01:48:00,
2013-11-29 17:53:00,34.6,24.1,30.29,ESE,114,4.0,5.0,65,0.00,,,0.00,0,WeatherCatV1.23B16,2013-11-30 01:53:00,
2013-11-29 17:58:00,34.4,23.9,30.29,ESE,109,0.0,4.0,65,0.00,,,0.00,0,WeatherCatV1.23B16,2013-11-30 01:58:00,
2013-11-29 18:03:00,34.4,23.9,30.32,ESE,109,4.0,4.0,65,0.00,,,0.00,0,WeatherCatV1.23B16,2013-11-30 02:03:00,
2013-11-29 18:08:00,34.4,23.9,30.32,ESE,109,3.0,4.0,65,0.00,,,0.00,0,WeatherCatV1.23B16,2013-11-30 02:08:00,
2013-11-29 18:13:00,34.4,23.9,30.32,ESE,110,4.0,4.0,65,0.00,,,0.00,0,WeatherCatV1.23B16,2013-11-30 02:13:00,
2013-11-29 18:18:00,34.4,23.5,30.33,ESE,116,3.0,5.0,64,0.00,,,0.00,0,WeatherCatV1.23B16,2013-11-30 02:18:00,
2013-11-29 18:23:00,34.3,23.8,30.33,ESE,106,3.0,4.0,65,0.00,,,0.00,0,WeatherCatV1.23B16,2013-11-30 02:23:00,
2013-11-29 18:28:00,34.3,23.8,30.33,ESE,116,4.0,4.0,65,0.00,,,0.00,0,WeatherCatV1.23B16,2013-11-30 02:28:00,
2013-11-29 18:33:00,34.0,23.9,30.32,ESE,109,3.0,4.0,66,0.00,,,0.00,0,WeatherCatV1.23B16,2013-11-30 02:33:00,
2013-11-29 18:39:00,33.5,24.1,30.32,ESE,103,3.0,5.0,68,0.00,,,0.00,0,WeatherCatV1.23B16,2013-11-30 02:39:00,
2013-11-29 18:44:00,33.2,24.1,30.33,East,99,2.0,6.0,69,0.00,,,0.00,0,WeatherCatV1.23B16,2013-11-30 02:44:00,
2013-11-29 18:49:00,33.1,24.0,30.33,East,101,0.0,4.0,69,0.00,,,0.00,0,WeatherCatV1.23B16,2013-11-30 02:49:00,
2013-11-29 18:54:00,33.1,24.0,30.33,ESE,106,2.0,5.0,69,0.00,,,0.00,0,WeatherCatV1.23B16,2013-11-30 02:54:00,
2013-11-29 18:59:00,32.9,23.9,30.33,ESE,104,1.0,3.0,69,0.00,,,0.00,0,WeatherCatV1.23B16,2013-11-30 02:59:00,
2013-11-29 19:04:00,32.9,24.2,30.33,ESE,114,6.0,6.0,70,0.00,,,0.00,0,WeatherCatV1.23B16,2013-11-30 03:04:00,
2013-11-29 19:09:00,32.9,23.9,30.33,ESE,108,3.0,6.0,69,0.00,,,0.00,0,WeatherCatV1.23B16,2013-11-30 03:09:00,
2013-11-29 19:14:00,33.1,24.0,30.33,ESE,110,1.0,6.0,69,0.00,,,0.00,0,WeatherCatV1.23B16,2013-11-30 03:14:00,
2013-11-29 19:19:00,33.1,24.4,30.33,ESE,112,4.0,4.0,70,0.00,,,0.00,0,WeatherCatV1.23B16,2013-11-30 03:19:00,
2013-11-29 19:24:00,33.1,24.0,30.33,East,101,3.0,5.0,69,0.00,,,0.00,0,WeatherCatV1.23B16,2013-11-30 03:24:00,
2013-11-29 19:29:00,33.2,24.1,30.34,ESE,112,5.0,6.0,69,0.00,,,0.00,0,WeatherCatV1.23B16,2013-11-30 03:29:00,
2013-11-29 19:34:00,33.4,24.3,30.34,ESE,110,2.0,4.0,69,0.00,,,0.00,0,WeatherCatV1.23B16,2013-11-30 03:34:00,
2013-11-29 19:39:00,33.2,24.1,30.34,ESE,114,4.0,6.0,69,0.00,,,0.00,0,WeatherCatV1.23B16,2013-11-30 03:39:00,
2013-11-29 19:44:00,33.1,24.4,30.34,SE,124,4.0,6.0,70,0.00,,,0.00,0,WeatherCatV1.23B16,2013-11-30 03:44:00,
2013-11-29 19:49:00,33.1,24.4,30.34,ESE,109,4.0,5.0,70,0.00,,,0.00,0,WeatherCatV1.23B16,2013-11-30 03:49:00,
2013-11-29 19:54:00,33.1,24.4,30.34,ESE,110,4.0,5.0,70,0.00,,,0.00,0,WeatherCatV1.23B16,2013-11-30 03:54:00,
2013-11-29 19:59:00,33.1,24.4,30.35,ESE,116,5.0,6.0,70,0.00,,,0.00,0,WeatherCatV1.23B16,2013-11-30 03:59:00,
2013-11-29 20:04:00,33.2,24.1,30.35,ESE,112,5.0,6.0,69,0.00,,,0.00,0,WeatherCatV1.23B16,2013-11-30 04:04:00,
2013-11-29 20:09:00,33.2,24.1,30.35,ESE,107,3.0,4.0,69,0.00,,,0.00,0,WeatherCatV1.23B16,2013-11-30 04:09:00,
2013-11-29 20:14:00,33.1,24.4,30.32,ESE,110,4.0,5.0,70,0.00,,,0.00,0,WeatherCatV1.23B16,2013-11-30 04:14:00,
2013-11-29 20:19:00,32.9,24.2,30.32,ESE,118,4.0,5.0,70,0.00,,,0.00,0,WeatherCatV1.23B16,2013-11-30 04:19:00,
2013-11-29 20:24:00,32.8,24.1,30.32,ESE,120,2.0,4.0,70,0.00,,,0.00,0,WeatherCatV1.23B16,2013-11-30 04:24:00,
2013-11-29 20:29:00,32.7,24.0,30.32,ESE,110,3.0,5.0,70,0.00,,,0.00,0,WeatherCatV1.23B16,2013-11-30 04:29:00,
2013-11-29 20:34:00,32.7,24.0,30.32,East,99,4.0,5.0,70,0.00,,,0.00,0,WeatherCatV1.23B16,2013-11-30 04:34:00,
2013-11-29 20:39:00,32.7,24.0,30.32,ESE,111,0.0,6.0,70,0.00,,,0.00,0,WeatherCatV1.23B16,2013-11-30 04:39:00,
2013-11-29 20:44:00,32.7,24.0,30.32,ESE,107,0.0,3.0,70,0.00,,,0.00,0,WeatherCatV1.23B16,2013-11-30 04:44:00,
2013-11-29 20:49:00,32.5,23.8,30.32,East,84,1.0,3.0,70,0.00,,,0.00,0,WeatherCatV1.23B16,2013-11-30 04:49:00,
2013-11-29 20:54:00,32.5,24.2,30.32,ENE,78,1.0,7.0,71,0.00,,,0.00,0,WeatherCatV1.23B16,2013-11-30 04:54:00,
2013-11-29 20:59:00,32.5,23.8,30.32,East,85,0.0,5.0,70,0.00,,,0.00,0,WeatherCatV1.23B16,2013-11-30 04:59:00,
2013-11-29 21:01:00,32.5,23.8,30.32,East,85,2.0,3.0,70,0.00,,,0.00,0,WeatherCatV1.23B16,2013-11-30 05:01:00,
2013-11-29 21:04:00,32.5,24.2,30.32,East,89,0.0,3.0,71,0.00,,,0.00,0,WeatherCatV1.23B16,2013-11-30 05:04:00,
2013-11-29 21:07:00,32.5,24.2,30.32,East,95,1.0,4.0,71,0.00,,,0.00,0,WeatherCatV1.23B16,2013-11-30 05:07:00,
2013-11-29 21:10:00,32.5,24.2,30.32,ESE,112,3.0,4.0,71,0.00,,,0.00,0,WeatherCatV1.23B16,2013-11-30 05:10:00,
2013-11-29 21:11:00,32.5,24.2,30.32,ESE,113,4.0,4.0,71,0.00,,,0.00,0,WeatherCatV1.23B16,2013-11-30 05:11:00,
2013-11-29 21:14:00,32.7,24.4,30.31,ESE,113,3.0,4.0,71,0.00,,,0.00,0,WeatherCatV1.23B16,2013-11-30 05:14:00,
2013-11-29 21:19:00,32.9,24.2,30.31,ESE,113,4.0,4.0,70,0.00,,,0.00,0,WeatherCatV1.23B16,2013-11-30 05:19:00,
2013-11-29 21:24:00,33.2,24.1,30.31,ESE,114,4.0,4.0,69,0.00,,,0.00,0,WeatherCatV1.23B16,2013-11-30 05:24:00,
2013-11-29 21:29:00,33.2,24.1,30.31,ESE,119,5.0,5.0,69,0.00,,,0.00,0,WeatherCatV1.23B16,2013-11-30 05:29:00,
2013-11-29 21:34:00,33.4,24.3,30.31,ESE,118,3.0,4.0,69,0.00,,,0.00,0,WeatherCatV1.23B16,2013-11-30 05:34:00,
2013-11-29 21:39:00,33.1,24.0,30.31,ESE,114,1.0,2.0,69,0.00,,,0.00,0,WeatherCatV1.23B16,2013-11-30 05:39:00,
2013-11-29 21:44:00,32.8,24.1,30.32,ESE,109,3.0,4.0,70,0.00,,,0.00,0,WeatherCatV1.23B16,2013-11-30 05:44:00,
2013-11-29 21:49:00,32.7,24.0,30.32,ESE,110,0.0,2.0,70,0.00,,,0.00,0,WeatherCatV1.23B16,2013-11-30 05:49:00,
2013-11-29 21:54:00,32.7,24.0,30.32,ESE,112,3.0,3.0,70,0.00,,,0.00,0,WeatherCatV1.23B16,2013-11-30 05:54:00,
2013-11-29 21:59:00,32.7,24.0,30.31,ESE,112,3.0,4.0,70,0.00,,,0.00,0,WeatherCatV1.23B16,2013-11-30 05:59:00,
2013-11-29 22:04:00,32.5,23.8,30.31,ESE,114,2.0,4.0,70,0.00,,,0.00,0,WeatherCatV1.23B16,2013-11-30 06:04:00,
2013-11-29 22:09:00,32.5,23.8,30.31,ESE,120,3.0,4.0,70,0.00,,,0.00,0,WeatherCatV1.23B16,2013-11-30 06:09:00,
2013-11-29 22:14:00,32.5,23.8,30.28,ESE,112,0.0,4.0,70,0.00,,,0.00,0,WeatherCatV1.23B16,2013-11-30 06:14:00,
2013-11-29 22:19:00,32.5,23.8,30.28,ESE,114,0.0,3.0,70,0.00,,,0.00,0,WeatherCatV1.23B16,2013-11-30 06:19:00,
2013-11-29 22:24:00,32.4,24.1,30.28,ESE,118,0.0,1.0,71,0.00,,,0.00,0,WeatherCatV1.23B16,2013-11-30 06:24:00,
2013-11-29 22:29:00,32.2,23.9,30.30,East,99,2.0,3.0,71,0.00,,,0.00,0,WeatherCatV1.23B16,2013-11-30 06:29:00,
2013-11-29 22:34:00,32.2,23.5,30.30,East,87,3.0,4.0,70,0.00,,,0.00,0,WeatherCatV1.23B16,2013-11-30 06:34:00,
2013-11-29 22:39:00,32.5,23.1,30.30,ESE,102,3.0,4.0,68,0.00,,,0.00,0,WeatherCatV1.23B16,2013-11-30 06:39:00,
2013-11-29 22:44:00,32.7,23.0,30.28,ESE,108,4.0,7.0,67,0.00,,,0.00,0,WeatherCatV1.23B16,2013-11-30 06:44:00,
2013-11-29 22:49:00,32.9,22.8,30.28,ESE,103,2.0,3.0,66,0.00,,,0.00,0,WeatherCatV1.23B16,2013-11-30 06:49:00,
2013-11-29 22:54:00,32.8,22.7,30.28,East,95,2.0,3.0,66,0.00,,,0.00,0,WeatherCatV1.23B16,2013-11-30 06:54:00,
2013-11-29 22:59:00,32.7,23.0,30.28,East,100,0.0,2.0,67,0.00,,,0.00,0,WeatherCatV1.23B16,2013-11-30 06:59:00,
2013-11-29 23:04:00,32.5,23.1,30.28,East,101,0.0,2.0,68,0.00,,,0.00,0,WeatherCatV1.23B16,2013-11-30 07:04:00,
2013-11-29 23:09:00,32.4,23.4,30.28,ESE,103,0.0,0.0,69,0.00,,,0.00,0,WeatherCatV1.23B16,2013-11-30 07:09:00,
2013-11-29 23:14:00,32.4,23.7,30.28,ESE,104,0.0,2.0,70,0.00,,,0.00,0,WeatherCatV1.23B16,2013-11-30 07:14:00,
2013-11-29 23:19:00,32.5,23.8,30.28,ESE,105,0.0,0.0,70,0.00,,,0.00,0,WeatherCatV1.23B16,2013-11-30 07:19:00,
2013-11-29 23:24:00,32.8,24.1,30.28,ESE,106,2.0,3.0,70,0.00,,,0.00,0,WeatherCatV1.23B16,2013-11-30 07:24:00,
2013-11-29 23:29:00,32.9,23.9,30.27,ESE,106,0.0,0.0,69,0.00,,,0.00,0,WeatherCatV1.23B16,2013-11-30 07:29:00,
2013-11-29 23:34:00,32.9,23.9,30.27,ESE,106,0.0,0.0,69,0.00,,,0.00,0,WeatherCatV1.23B16,2013-11-30 07:34:00,
2013-11-29 23:39:00,32.9,23.9,30.27,ESE,106,0.0,0.0,69,0.00,,,0.00,0,WeatherCatV1.23B16,2013-11-30 07:39:00,
2013-11-29 23:44:00,32.9,23.5,30.27,ESE,106,0.0,0.0,68,0.00,,,0.00,0,WeatherCatV1.23B16,2013-11-30 07:44:00,
2013-11-29 23:49:00,32.9,23.9,30.27,ESE,106,0.0,0.0,69,0.00,,,0.00,0,WeatherCatV1.23B16,2013-11-30 07:49:00,
2013-11-29 23:54:00,32.9,23.9,30.27,ESE,106,0.0,0.0,69,0.00,,,0.00,0,WeatherCatV1.23B16,2013-11-30 07:54:00,
2013-11-29 23:59:00,32.8,23.8,30.27,ESE,106,0.0,0.0,69,0.00,,,0.00,0,WeatherCatV1.23B16,2013-11-30 07:59:00,